Wind_Speed
38 38 38 35 36 36 36 38 36 34 34 30 24 24 27 20 22 21 21 18 17 28 34 15 19 12 10 7 10 13 15 10 3 6 15 13 22 24 23 21 21 21 16
39 35 37 38 35 35 35 34 35 38 31 21 27 31 26 22 17 21 22 15 15 23 29 16 10 5 6 11 12 14 13 13 10 7 14 19 24 26 25 26 26 23 19
36 37 35 34 36 34 32 37 36 32 31 30 30 27 25 23 17 20 19 19 18 23 18 9 1 6 12 15 13 11 12 11 13 17 15 22 25 30 31 28 26 24 18
38 36 35 36 35 35 36 35 34 33 30 27 23 21 20 20 21 15 11 9 18 13 4 7 10 13 15 12 12 14 12 14 18 19 18 18 21 29 26 27 26 27 24
38 36 36 36 36 36 34 34 32 30 26 22 19 17 17 18 16 10 5 2 14 10 15 17 16 16 14 13 14 16 15 18 19 20 18 19 20 24 26 24 22 25 20
37 35 37 37 35 33 34 32 28 24 20 17 16 17 16 13 10 5 4 12 17 15 20 18 19 16 15 15 15 17 18 19 19 19 17 15 23 27 32 26 23 20 17
36 36 35 37 36 35 30 25 23 21 20 17 15 12 7 6 7 7 12 16 15 19 21 19 16 13 12 12 13 12 14 14 15 15 15 17 22 24 26 27 25 20 20
37 36 36 34 32 29 26 23 21 19 16 13 10 10 8 11 11 16 16 20 23 19 19 15 13 12 11 10 12 11 10 9 10 11 10 14 17 20 26 29 24 19 15
32 34 35 35 31 26 23 21 20 16 13 11 12 12 13 19 19 24 27 28 26 22 18 15 13 12 10 9 12 11 11 10 10 9 2 6 10 18 24 30 25 23 11
30 33 33 32 29 26 24 22 18 16 16 13 15 14 18 25 24 26 28 28 25 22 18 16 13 12 10 12 14 11 10 12 15 12 7 4 5 12 21 27 30 22 21
30 27 28 29 28 27 24 22 22 21 18 19 20 22 24 29 26 25 25 23 23 22 19 15 14 13 15 15 13 12 11 12 15 14 15 9 6 5 15 20 28 34 29
27 27 27 28 28 28 27 26 26 23 23 25 27 24 27 28 24 21 19 17 18 21 20 16 16 16 17 14 15 16 19 18 17 16 14 15 9 4 8 12 19 26 32
28 29 29 30 28 32 32 30 27 24 26 24 24 26 24 22 23 25 21 22 17 21 20 20 21 19 17 15 15 15 18 17 16 15 15 18 17 11 8 12 12 14 22
29 30 33 31 28 29 30 32 28 26 24 23 24 24 29 30 31 31 28 25 22 21 21 19 18 17 14 14 12 12 14 15 16 16 16 18 19 24 25 24 25 25 18
30 30 25 30 29 28 25 25 27 25 27 28 27 28 33 31 31 29 27 26 23 21 23 20 17 14 13 12 12 12 14 14 14 15 16 17 19 20 21 19 23 25 23
26 23 26 25 30 32 30 28 26 26 25 28 31 32 30 30 28 25 23 21 20 21 20 17 14 9 10 13 13 11 10 12 11 12 14 17 17 19 21 22 22 25 26
25 25 24 28 26 29 28 29 28 27 27 24 26 27 27 32 27 24 21 19 20 20 16 10 14 16 14 16 15 12 12 10 11 17 15 16 16 18 19 19 20 21 22
25 29 26 24 25 26 25 25 28 27 24 29 30 28 25 30 29 26 24 23 24 16 7 19 18 16 15 18 16 15 11 10 11 15 13 16 18 17 18 20 19 18 21
28 24 23 22 24 25 25 25 26 23 26 35 34 34 32 31 30 28 26 26 26 19 11 21 19 18 17 19 18 17 13 12 10 11 14 14 17 18 19 20 20 19 19
27 27 24 24 26 26 26 26 25 28 32 34 34 39 38 35 34 32 26 25 22 15 24 22 20 20 17 15 13 12 14 14 12 10 12 17 14 14 16 18 17 18 19
26 31 29 25 26 26 28 27 26 30 28 29 34 42 41 40 38 34 29 27 21 20 27 23 21 20 17 14 19 18 16 10 14 12 13 16 16 15 15 16 15 14 13
24 29 30 28 27 28 28 27 30 30 28 27 32 40 40 36 36 34 31 26 16 31 25 24 23 22 18 20 19 15 15 16 15 14 12 13 16 14 15 16 15 15 17
25 30 28 28 29 30 31 27 32 31 30 28 34 40 36 32 35 35 31 24 21 28 26 24 23 20 18 21 18 15 19 17 15 15 14 13 16 14 22 19 17 17 17
27 31 31 29 31 29 30 31 32 33 32 31 36 41 40 33 33 34 33 24 30 28 27 23 23 21 22 20 19 14 18 18 17 14 16 16 15 21 22 19 17 17 21
16 28 27 29 31 30 30 32 31 31 32 33 35 38 39 38 30 31 33 29 32 30 27 25 23 23 27 23 22 16 24 22 19 14 15 19 18 21 18 18 19 18 19
11 14 15 21 26 30 31 31 31 32 31 34 36 38 39 41 35 33 33 38 36 32 28 26 26 27 25 23 25 22 23 22 23 16 22 18 22 19 20 20 18 19 14
Wind_Direction
200 208 215 219 225 232 238 243 246 252 252 253 260 264 262 245 228 236 232 228 167 285 290 328 316 340 353 34 62 70 75 59 86 4 27 49 19 12 7 7 12 12 9
200 204 213 222 223 226 232 240 246 244 244 255 256 256 262 263 249 247 245 190 168 236 269 309 315 345 50 74 86 71 57 58 40 40 48 29 23 13 13 9 8 4 357
197 203 210 215 222 224 228 237 245 250 254 257 257 260 265 263 257 256 261 241 232 234 243 274 254 107 95 92 75 52 47 51 59 64 48 29 28 20 10 7 359 358 354
196 201 207 215 219 224 233 239 243 249 252 255 259 258 258 261 261 271 273 219 204 189 207 153 125 115 98 80 64 57 60 68 70 62 49 35 22 17 13 4 359 359 352
195 200 208 215 221 226 230 238 243 247 251 252 252 253 255 256 262 257 236 142 171 143 141 119 104 91 84 76 72 71 79 79 73 66 57 40 25 16 10 356 2 357 358
196 200 209 214 218 225 230 233 238 240 245 242 243 250 254 259 244 221 192 135 143 143 126 110 100 91 83 78 85 86 70 79 81 74 65 51 40 29 17 6 7 13 10
196 203 206 213 218 222 225 228 232 234 237 240 242 242 216 198 182 148 141 138 143 138 123 118 111 99 89 95 98 93 75 72 72 71 72 61 50 42 35 26 20 17 18
200 204 208 209 212 218 221 222 225 227 220 221 224 176 162 143 143 137 139 135 130 138 144 129 115 111 106 105 103 95 78 67 66 65 59 67 56 49 49 41 31 28 24
198 202 208 211 210 204 202 205 212 204 190 201 174 158 147 146 146 144 145 137 131 124 125 117 110 108 112 108 107 100 94 73 60 42 53 76 66 51 48 38 35 25 11
200 205 205 203 199 192 193 195 193 178 169 167 142 146 151 142 143 151 147 142 130 125 120 114 105 102 100 98 98 96 71 37 35 68 83 157 86 57 51 48 48 37 26
207 199 193 192 188 186 184 179 169 161 163 144 135 140 145 144 144 153 154 147 142 134 126 117 108 105 103 104 85 57 31 36 81 104 81 93 153 71 50 51 51 52 45
200 189 183 182 179 177 171 165 161 157 149 134 128 134 145 148 148 155 160 152 146 137 132 122 115 112 110 92 72 63 58 96 102 93 79 63 98 109 50 46 52 52 50
184 181 175 172 169 171 163 160 152 161 139 136 132 131 137 152 164 160 151 153 143 130 128 121 115 111 106 93 78 82 74 79 85 98 85 73 68 65 51 34 34 37 43
166 158 162 160 149 153 158 162 157 148 145 144 139 136 140 138 142 150 151 151 146 133 130 126 121 115 105 94 85 71 81 74 87 87 99 86 79 76 76 72 61 54 47
150 153 149 149 151 143 151 157 165 159 159 156 153 153 151 153 155 159 158 153 148 139 136 135 135 134 125 113 97 91 87 85 94 92 96 100 92 85 79 72 65 63 63
152 151 150 149 152 153 150 143 156 157 165 171 169 171 173 165 160 162 161 156 150 146 144 148 154 161 162 142 123 105 101 87 79 114 101 112 106 99 89 79 78 68 61
160 154 153 153 153 150 152 152 151 157 160 163 170 173 178 172 167 166 162 161 155 156 153 169 159 144 138 143 130 116 107 86 77 96 112 108 112 105 99 92 79 69 58
160 156 157 156 157 155 159 161 161 157 157 161 165 172 173 167 166 163 157 156 164 172 157 161 148 145 143 143 136 128 120 107 96 116 109 112 113 114 105 96 87 81 71
155 156 156 157 157 161 163 160 159 161 160 158 159 164 163 164 166 166 168 170 174 183 177 159 153 150 144 140 136 143 136 122 108 109 142 126 124 119 116 110 96 89 85
165 169 167 165 161 161 163 161 155 157 156 157 159 163 162 163 167 172 178 180 184 182 166 159 158 159 159 159 161 165 154 138 125 115 100 160 143 139 135 127 111 104 94
164 175 169 172 171 170 167 167 155 157 156 159 166 170 170 171 174 179 183 187 191 188 169 165 165 167 168 161 151 147 150 157 146 137 125 127 128 128 127 132 132 123 114
172 164 168 178 178 176 175 171 160 162 163 160 168 173 175 179 181 184 188 195 205 177 174 172 172 174 176 171 169 172 169 157 158 155 147 148 146 142 137 125 117 121 112
181 174 176 181 183 182 178 171 160 166 167 166 171 174 177 185 188 189 194 197 190 175 173 176 179 179 178 175 180 183 175 168 158 157 159 157 156 154 147 135 123 119 130
192 183 183 183 184 184 185 166 168 171 169 166 174 181 183 183 190 194 195 198 178 175 176 179 179 178 176 177 182 179 181 172 169 172 167 161 154 148 141 138 135 119 122
211 189 175 185 188 195 174 168 171 174 173 171 178 183 185 184 187 196 198 201 182 178 179 178 181 186 183 182 183 184 178 178 178 174 163 165 154 149 144 142 141 135 126
269 224 206 199 190 184 171 174 174 177 181 172 181 185 185 188 187 197 197 189 182 184 184 185 187 189 186 188 189 187 186 190 187 167 163 160 157 150 147 149 152 150 149
Height
770 774 778 781 785 789 791 793 795 796 798 800 802 801 800 803 809 807 806 803 806 807 808 809 811 812 809 808 809 809 809 810 811 811 810 809 805 803 799 796 791 787 784
763 769 772 776 780 783 785 787 787 788 794 797 798 796 797 799 804 803 804 805 806 801 805 811 811 812 810 807 808 809 810 810 810 811 811 809 806 802 797 792 788 785 782
758 762 767 771 773 777 780 780 781 785 789 791 793 793 794 795 798 799 800 799 801 804 808 812 812 811 809 807 809 810 810 810 811 812 811 809 805 801 794 789 785 782 779
751 756 760 763 768 771 772 775 778 780 784 787 789 790 791 791 791 793 796 798 803 806 808 810 809 809 807 808 809 810 811 812 812 811 812 809 806 799 795 788 782 779 775
744 749 753 757 761 765 767 770 773 777 780 784 785 787 788 788 789 791 793 796 800 805 807 808 809 807 809 810 810 813 813 813 813 813 811 809 806 801 796 793 786 782 777
737 743 747 752 756 759 762 766 770 774 778 780 783 784 784 785 787 789 791 794 799 803 805 807 808 809 811 811 813 814 815 814 813 812 812 811 807 804 800 795 790 784 780
733 737 741 745 750 754 759 764 768 771 774 777 779 780 782 784 786 789 791 793 798 803 806 808 809 811 813 814 815 816 816 815 814 814 813 813 810 808 805 800 795 791 787
727 731 736 740 745 750 757 761 765 768 771 774 776 778 781 784 787 790 793 797 801 804 807 810 811 813 815 815 816 817 817 816 817 816 816 816 814 811 807 804 800 794 789
722 726 731 735 741 747 752 758 761 765 768 771 773 776 780 784 788 790 792 797 802 806 809 812 813 815 816 816 816 816 817 817 817 817 816 817 816 813 810 806 801 795 788
717 720 726 731 737 743 749 754 758 762 766 769 773 777 781 785 790 791 794 799 803 808 811 813 815 816 817 817 817 817 817 817 817 817 817 817 817 816 813 809 805 801 796
714 719 723 727 733 739 746 751 755 759 763 769 773 778 782 786 791 794 797 800 803 808 811 815 816 818 818 819 819 819 818 818 818 818 819 818 819 818 816 814 810 806 803
711 716 721 726 732 737 743 748 753 758 764 770 774 779 785 790 793 797 800 803 806 808 811 814 817 819 820 821 821 821 820 818 820 821 821 821 820 820 819 817 815 813 810
708 713 719 725 729 734 739 745 752 758 764 770 774 779 785 790 794 798 801 804 807 810 813 816 818 821 822 823 823 823 822 822 823 823 823 823 823 823 822 821 820 818 816
706 711 718 722 728 733 738 744 750 756 763 768 774 779 785 790 793 796 801 805 807 810 814 817 820 822 823 825 825 825 825 825 826 825 826 827 826 826 826 825 824 823 820
705 712 717 722 727 732 739 745 749 756 760 764 770 776 781 787 792 796 799 803 808 812 814 818 820 822 824 826 827 828 828 827 828 828 829 830 830 829 829 829 829 828 825
706 712 716 721 726 730 737 743 751 757 762 765 770 774 782 787 791 796 801 805 807 811 815 817 819 822 824 826 828 829 830 829 830 830 831 832 833 834 834 833 833 832 830
704 710 716 721 727 731 736 741 747 757 762 767 772 776 781 785 791 796 801 805 809 812 815 818 819 822 824 826 828 830 831 832 832 833 833 835 837 837 837 838 838 837 836
703 707 715 720 725 730 737 742 746 752 758 764 771 776 781 786 791 796 800 804 808 812 814 816 819 822 824 826 829 831 833 833 834 834 835 836 838 840 840 841 841 842 841
702 709 714 720 725 731 737 742 746 752 757 761 768 776 781 786 791 794 797 801 804 808 812 815 818 821 824 827 829 832 833 833 835 836 837 838 840 842 843 843 844 845 845
703 708 714 719 725 730 736 740 744 750 754 760 766 772 777 783 788 793 796 800 804 807 811 813 816 820 824 827 829 831 834 835 836 837 838 839 841 843 844 845 846 847 848
701 707 712 718 722 726 731 736 741 747 751 757 762 767 772 778 783 788 793 796 801 805 807 810 814 818 822 825 828 831 834 835 836 838 840 841 842 844 845 847 848 848 850
700 704 709 714 719 722 726 731 737 743 749 754 760 767 772 776 781 786 790 795 797 800 803 807 811 815 819 823 826 829 832 834 836 838 840 842 843 844 846 848 849 850 851
696 700 705 709 713 718 723 728 732 739 745 750 756 762 769 773 778 782 787 791 794 797 800 805 809 813 816 821 825 827 830 832 835 837 839 841 843 845 846 847 849 851 852
690 693 698 705 710 713 718 723 728 734 738 743 750 756 761 766 772 778 784 788 791 794 798 801 805 810 814 819 823 826 829 831 833 836 838 840 842 844 847 849 850 852 852
686 687 690 698 703 706 712 718 724 731 734 738 743 749 755 761 767 771 778 783 787 791 794 799 802 806 811 815 819 823 827 830 833 834 836 839 841 844 847 849 851 853 854
686 686 688 691 694 701 705 711 717 724 730 733 738 743 748 754 760 766 771 776 780 786 790 794 798 802 806 811 815 819 824 828 831 834 836 838 841 844 846 850 852 853 854